Find Starlink 34143

NORAD ID: 63896 Int'l Des: 2025-095 Owner: SPXS Country: US Constellation: starlink operational
LEOCIRCULAR

現在のビュー

3D地球を読み込み中...

About Starlink 34143

Starlink 34143 (NORAD 63896) is a starlink constellation satellite (v2 mini) launched May 10, 2025 by SPXS of US. It operates in LEO, CIRCULAR orbit with a mass of 575.00 kg.

Starlink 34143について

説明を読み込み中...

次回通過

Passes for default location (London). Set your location on the main map for personalized predictions.

高度履歴

Loading altitude history...

軌道要素

1 63896U 25095G 26165.23134130 .00019919 00000-0 73107-3 0 9990
2 63896 43.0066 350.9136 0003763 264.7100 95.3323 15.27590860 62555
Epoch: Jun 14, 2026 • Age: 49 hours

現在のステータス

高度 482.1 km
速度 7.63 km/s
衛星直下点 2.12°N, 15.99°W
打ち上げ日 May 10, 2025
運用期間 1 year
タイプ internet

技術仕様

分類 Payload
質量 575.00 kg
乾燥質量 530.00 kg
総質量 575.00 kg
長さ 0.30 m
直径 4.10 m
スパン 29.00 m
形状 Box + pan
製造者 SPXS
バスタイプ Starlink V2MO
フェーズステータス In Orbit
所有者/国 SPXS/US

Most Searched